When you browse on this site, cookies collect data to enhance your experience and personalize the content and advertising you see.
Visit our Privacy Policy to learn more. By continuing to use the site, you agree to this use of cookies and data.
  • In Germany
  • List of Countries
  • For 7 days
  • Water Temperature
  • Weather Map
  • Weather Widgets
  • user-avatar
    Login

    Hourly Weather Ischgl

    Today, 20 November, Wednesday

    Time Temperature Precipitation Wind Pressure Humidity
    00:00 -8°C° 0 mm 2 mps 568 mmHg 91%
    01:00 -9°C° 0 mm 3 mps 568 mmHg 90%
    02:00 -9°C° 0 mm 3 mps 568 mmHg 90%
    03:00 -9°C° 0 mm 3 mps 567 mmHg 90%
    04:00 -9°C° 0 mm 3 mps 567 mmHg 91%
    05:00 -8°C° 0 mm 2 mps 567 mmHg 90%
    06:00 -9°C° 0 mm 2 mps 567 mmHg 89%
    07:00 -9°C° 0 mm 2 mps 567 mmHg 89%
    08:00 -7°C° 0 mm 2 mps 567 mmHg 89%
    09:00 -6°C° 0 mm 2 mps 568 mmHg 89%
    10:00 -4°C° 0 mm 2 mps 569 mmHg 89%
    11:00 -1°C° 0 mm 1 mps 569 mmHg 91%
    12:00 -1°C° 0 mm 1 mps 569 mmHg 94%
    13:00 0°C° 0 mm 1 mps 569 mmHg 96%
    14:00 -1°C° 0 mm 1 mps 568 mmHg 95%
    15:00 -2°C° 0 mm 1 mps 568 mmHg 93%
    16:00 -3°C° 0 mm 1 mps 567 mmHg 92%
    17:00 -4°C° 0 mm 1 mps 567 mmHg 90%
    18:00 -4°C° 0 mm 1 mps 566 mmHg 88%
    19:00 -6°C° 0 mm 1 mps 566 mmHg 87%
    20:00 -6°C° 0 mm 1 mps 566 mmHg 86%
    21:00 -7°C° 0 mm 2 mps 566 mmHg 85%
    22:00 -7°C° 0 mm 2 mps 566 mmHg 85%
    23:00 -7°C° 0 mm 2 mps 566 mmHg 85%

    Tomorrow, 21 November, Thursday

    Time Temperature Precipitation Wind Pressure Humidity
    00:00 -7°C° 0 mm 2 mps 566 mmHg 85%
    01:00 -7°C° 0 mm 2 mps 566 mmHg 86%
    02:00 -7°C° 0 mm 2 mps 565 mmHg 87%
    03:00 -7°C° 0 mm 2 mps 565 mmHg 88%
    04:00 -7°C° 0 mm 2 mps 565 mmHg 89%
    05:00 -7°C° 0 mm 2 mps 565 mmHg 89%
    06:00 -8°C° 0 mm 2 mps 565 mmHg 89%
    07:00 -8°C° 0 mm 2 mps 565 mmHg 90%
    08:00 -7°C° 0 mm 2 mps 565 mmHg 89%
    09:00 -6°C° 0 mm 2 mps 566 mmHg 89%
    10:00 -4°C° 0 mm 2 mps 567 mmHg 88%
    11:00 -4°C° 0 mm 2 mps 567 mmHg 90%
    12:00 -4°C° 0 mm 2 mps 567 mmHg 91%
    13:00 -3°C° 0 mm 2 mps 567 mmHg 92%
    14:00 -4°C° 0 mm 2 mps 566 mmHg 91%
    15:00 -5°C° 0 mm 2 mps 566 mmHg 91%
    16:00 -6°C° 0 mm 2 mps 565 mmHg 90%
    17:00 -7°C° 0 mm 2 mps 565 mmHg 90%
    18:00 -9°C° 0 mm 3 mps 565 mmHg 89%
    19:00 -10°C° 0 mm 3 mps 564 mmHg 89%
    20:00 -12°C° 0 mm 3 mps 564 mmHg 89%
    21:00 -12°C° 0 mm 3 mps 564 mmHg 89%
    22:00 -12°C° 0 mm 3 mps 564 mmHg 89%
    23:00 -12°C° 0 mm 3 mps 564 mmHg 89%

    Day after tomorrow, 22 November, Friday

    Time Temperature Precipitation Wind Pressure Humidity
    00:00 -12°C° 0 mm 3 mps 564 mmHg 89%
    01:00 -12°C° 0 mm 3 mps 564 mmHg 89%
    02:00 -13°C° 0 mm 3 mps 564 mmHg 88%
    03:00 -13°C° 0 mm 3 mps 564 mmHg 88%
    04:00 -13°C° 0 mm 3 mps 564 mmHg 88%
    05:00 -13°C° 0 mm 3 mps 564 mmHg 88%
    06:00 -13°C° 0 mm 3 mps 564 mmHg 88%
    07:00 -13°C° 0 mm 3 mps 564 mmHg 88%
    08:00 -12°C° 0 mm 3 mps 565 mmHg 89%
    09:00 -10°C° 0 mm 3 mps 565 mmHg 89%
    10:00 -8°C° 0 mm 3 mps 566 mmHg 89%
    11:00 -7°C° 0 mm 3 mps 566 mmHg 89%
    12:00 -6°C° 0 mm 3 mps 566 mmHg 90%
    13:00 -5°C° 0 mm 3 mps 567 mmHg 91%
    14:00 -6°C° 0 mm 3 mps 566 mmHg 91%
    15:00 -6°C° 0 mm 3 mps 565 mmHg 91%
    16:00 -7°C° 0 mm 3 mps 565 mmHg 91%
    17:00 -8°C° 0 mm 3 mps 564 mmHg 91%
    18:00 -10°C° 0 mm 4 mps 564 mmHg 91%
    19:00 -11°C° 0 mm 4 mps 564 mmHg 91%
    20:00 -11°C° 0 mm 4 mps 564 mmHg 90%
    21:00 -11°C° 0 mm 4 mps 564 mmHg 90%
    22:00 -11°C° 0 mm 4 mps 564 mmHg 90%
    23:00 -10°C° 0 mm 4 mps 564 mmHg 90%

    23 November, Saturday

    Time Temperature Precipitation Wind Pressure Humidity
    00:00 -10°C° 0 mm 4 mps 564 mmHg 90%
    01:00 -9°C° 0 mm 4 mps 564 mmHg 90%
    02:00 -9°C° 0 mm 4 mps 564 mmHg 90%
    03:00 -9°C° 0 mm 4 mps 563 mmHg 90%
    04:00 -9°C° 0 mm 4 mps 563 mmHg 90%
    05:00 -9°C° 0 mm 4 mps 563 mmHg 90%
    06:00 -9°C° 0 mm 4 mps 563 mmHg 90%
    07:00 -9°C° 0 mm 4 mps 563 mmHg 90%
    08:00 -8°C° 0 mm 4 mps 564 mmHg 90%
    09:00 -7°C° 0 mm 5 mps 564 mmHg 90%
    10:00 -6°C° 0 mm 5 mps 564 mmHg 90%
    11:00 -5°C° 0 mm 4 mps 565 mmHg 92%
    12:00 -4°C° 0 mm 4 mps 565 mmHg 94%
    13:00 -3°C° 0 mm 4 mps 565 mmHg 95%
    14:00 -4°C° 0 mm 4 mps 565 mmHg 94%
    15:00 -4°C° 0 mm 4 mps 564 mmHg 93%
    16:00 -4°C° 0 mm 3 mps 564 mmHg 92%
    17:00 -5°C° 0 mm 3 mps 565 mmHg 92%
    18:00 -5°C° 0 mm 3 mps 565 mmHg 92%
    19:00 -5°C° 0 mm 3 mps 565 mmHg 91%
    20:00 -5°C° 0 mm 4 mps 565 mmHg 91%
    21:00 -7°C° 0 mm 4 mps 566 mmHg 91%
    22:00 -7°C° 0 mm 4 mps 566 mmHg 91%
    23:00 -7°C° 0 mm 4 mps 566 mmHg 91%

    24 November, Sunday

    Time Temperature Precipitation Wind Pressure Humidity
    00:00 -6°C° 0 mm 3 mps 566 mmHg 91%
    01:00 -6°C° 0 mm 3 mps 566 mmHg 91%
    02:00 -7°C° 0 mm 3 mps 566 mmHg 91%
    03:00 -7°C° 0 mm 3 mps 566 mmHg 91%
    04:00 -7°C° 0 mm 3 mps 566 mmHg 90%
    05:00 -7°C° 0 mm 3 mps 566 mmHg 89%
    06:00 -8°C° 0 mm 3 mps 566 mmHg 88%
    07:00 -8°C° 0 mm 3 mps 566 mmHg 87%
    08:00 -7°C° 0 mm 3 mps 567 mmHg 87%
    09:00 -6°C° 0 mm 3 mps 568 mmHg 86%
    10:00 -3°C° 0 mm 2 mps 569 mmHg 85%
    11:00 -3°C° 0 mm 2 mps 569 mmHg 89%
    12:00 -2°C° 0 mm 2 mps 569 mmHg 92%
    13:00 -2°C° 0 mm 2 mps 570 mmHg 96%
    14:00 -2°C° 0 mm 2 mps 569 mmHg 92%
    15:00 -3°C° 0 mm 2 mps 569 mmHg 88%
    16:00 -4°C° 0 mm 2 mps 569 mmHg 84%
    17:00 -5°C° 0 mm 2 mps 569 mmHg 81%
    18:00 -6°C° 0 mm 2 mps 568 mmHg 78%
    19:00 -6°C° 0 mm 2 mps 568 mmHg 75%
    20:00 -6°C° 0 mm 1 mps 568 mmHg 73%
    21:00 -6°C° 0 mm 1 mps 568 mmHg 71%
    22:00 -6°C° 0 mm 1 mps 568 mmHg 69%
    23:00 -6°C° 0 mm 1 mps 568 mmHg 68%

    25 November, Monday

    Time Temperature Precipitation Wind Pressure Humidity
    00:00 -6°C° 0 mm 1 mps 568 mmHg 68%
    01:00 -6°C° 0 mm 1 mps 568 mmHg 67%
    02:00 -6°C° 0 mm 1 mps 568 mmHg 67%
    03:00 -7°C° 0 mm 1 mps 568 mmHg 67%
    04:00 -7°C° 0 mm 1 mps 568 mmHg 67%
    05:00 -7°C° 0 mm 1 mps 568 mmHg 67%
    06:00 -7°C° 0 mm 1 mps 568 mmHg 67%
    07:00 -7°C° 0 mm 1 mps 568 mmHg 67%
    08:00 -4°C° 0 mm 1 mps 569 mmHg 70%
    09:00 -2°C° 0 mm 1 mps 570 mmHg 72%
    10:00 0°C° 0 mm 1 mps 571 mmHg 75%
    11:00 0°C° 0 mm 1 mps 571 mmHg 82%
    12:00 0°C° 0 mm 0 mps 571 mmHg 88%
    13:00 0°C° 0 mm 0 mps 571 mmHg 95%
    14:00 -1°C° 0 mm 0 mps 570 mmHg 88%
    15:00 -2°C° 0 mm 0 mps 570 mmHg 81%
    16:00 -4°C° 0 mm 0 mps 569 mmHg 74%
    17:00 -4°C° 0 mm 0 mps 569 mmHg 71%
    18:00 -3°C° 0 mm 1 mps 569 mmHg 68%
    19:00 -4°C° 0 mm 1 mps 569 mmHg 65%
    20:00 -4°C° 0 mm 1 mps 569 mmHg 64%
    21:00 -4°C° 0 mm 1 mps 569 mmHg 63%
    22:00 -6°C° 0 mm 1 mps 569 mmHg 63%
    23:00 -6°C° 0 mm 1 mps 569 mmHg 64%
    Show more